Time,TemperatureF,DewpointF,PressureIn,WindDirection,WindDirectionDegrees,WindSpeedMPH,WindSpeedGustMPH,Humidity,HourlyPrecipIn,Conditions,Clouds,dailyrainin,SoftwareType,DateUTC
2013-02-09 00:00:00,30.6,26.6,30.17,North,350,17.0,17.0,85,0.00,,,0.02,Wunderground v.1.15,2013-02-09 05:00:00,
2013-02-09 00:05:00,30.6,26.6,30.16,North,355,17.0,17.0,85,0.00,,,0.00,Wunderground v.1.15,2013-02-09 05:05:00,
2013-02-09 00:15:00,30.5,26.5,30.16,North,349,14.0,15.0,85,0.00,,,0.00,Wunderground v.1.15,2013-02-09 05:15:00,
2013-02-09 00:20:00,30.4,26.4,30.16,North,355,15.0,15.0,85,0.00,,,0.00,Wunderground v.1.15,2013-02-09 05:20:00,
2013-02-09 00:25:00,30.3,26.3,30.16,NNW,345,16.0,16.0,85,0.00,,,0.00,Wunderground v.1.15,2013-02-09 05:25:00,
2013-02-09 00:30:00,30.2,26.2,30.16,NNW,345,15.0,15.0,85,0.00,,,0.00,Wunderground v.1.15,2013-02-09 05:30:00,
2013-02-09 00:35:00,30.0,26.3,30.16,NNE,18,15.0,15.0,86,0.00,,,0.00,Wunderground v.1.15,2013-02-09 05:35:00,
2013-02-09 00:40:00,29.8,26.1,30.16,North,360,15.0,15.0,86,0.00,,,0.00,Wunderground v.1.15,2013-02-09 05:40:00,
2013-02-09 00:45:00,29.7,26.0,30.16,NNW,344,16.0,21.0,86,0.00,,,0.00,Wunderground v.1.15,2013-02-09 05:45:00,
2013-02-09 00:50:00,29.6,25.9,30.15,North,349,16.0,16.0,86,0.00,,,0.00,Wunderground v.1.15,2013-02-09 05:50:00,
2013-02-09 00:55:00,29.5,26.1,30.15,North,5,16.0,16.0,87,0.00,,,0.00,Wunderground v.1.15,2013-02-09 05:55:00,
2013-02-09 01:00:00,29.4,26.0,30.15,North,355,15.0,15.0,87,0.00,,,0.00,Wunderground v.1.15,2013-02-09 06:00:00,
2013-02-09 01:05:00,29.3,25.9,30.15,North,355,14.0,20.0,87,0.00,,,0.00,Wunderground v.1.15,2013-02-09 06:05:00,
2013-02-09 01:15:00,29.1,25.7,30.15,North,360,15.0,15.0,87,0.00,,,0.00,Wunderground v.1.15,2013-02-09 06:15:00,
2013-02-09 01:25:00,28.9,25.5,30.16,North,360,13.0,18.0,87,0.00,,,0.00,Wunderground v.1.15,2013-02-09 06:25:00,
2013-02-09 01:30:00,28.8,25.7,30.16,NNW,346,13.0,15.0,88,0.00,,,0.00,Wunderground v.1.15,2013-02-09 06:30:00,
2013-02-09 01:35:00,28.8,25.7,30.16,NNW,343,13.0,15.0,88,0.00,,,0.00,Wunderground v.1.15,2013-02-09 06:35:00,
2013-02-09 01:45:00,28.7,25.6,30.16,North,355,14.0,20.0,88,0.00,,,0.00,Wunderground v.1.15,2013-02-09 06:45:00,
2013-02-09 01:55:00,28.5,25.4,30.17,North,350,14.0,14.0,88,0.00,,,0.00,Wunderground v.1.15,2013-02-09 06:55:00,
2013-02-09 02:05:00,28.4,25.3,30.17,NNW,342,13.0,14.0,88,0.00,,,0.00,Wunderground v.1.15,2013-02-09 07:05:00,
2013-02-09 02:15:00,28.4,25.3,30.17,North,355,14.0,19.0,88,0.00,,,0.00,Wunderground v.1.15,2013-02-09 07:15:00,
2013-02-09 02:20:00,28.4,25.3,30.17,NNW,347,15.0,16.0,88,0.00,,,0.00,Wunderground v.1.15,2013-02-09 07:20:00,
2013-02-09 02:30:00,28.3,25.2,30.17,North,360,15.0,15.0,88,0.00,,,0.00,Wunderground v.1.15,2013-02-09 07:30:00,
2013-02-09 02:35:00,28.3,25.2,30.18,North,351,15.0,18.0,88,0.00,,,0.00,Wunderground v.1.15,2013-02-09 07:35:00,
2013-02-09 02:45:00,28.4,25.3,30.18,NNW,345,16.0,16.0,88,0.00,,,0.00,Wunderground v.1.15,2013-02-09 07:45:00,
2013-02-09 02:50:00,28.3,25.2,30.19,NNW,339,16.0,18.0,88,0.00,,,0.00,Wunderground v.1.15,2013-02-09 07:50:00,
2013-02-09 02:55:00,28.3,25.2,30.19,NNW,346,15.0,18.0,88,0.00,,,0.00,Wunderground v.1.15,2013-02-09 07:55:00,
2013-02-09 03:05:00,28.3,25.2,30.19,North,5,16.0,19.0,88,0.00,,,0.00,Wunderground v.1.15,2013-02-09 08:05:00,
2013-02-09 03:15:00,28.3,24.9,30.19,North,355,17.0,17.0,87,0.00,,,0.00,Wunderground v.1.15,2013-02-09 08:15:00,
2013-02-09 03:20:00,28.3,25.2,30.19,North,360,16.0,16.0,88,0.00,,,0.00,Wunderground v.1.15,2013-02-09 08:20:00,
2013-02-09 03:25:00,28.3,25.2,30.20,North,350,16.0,18.0,88,0.00,,,0.00,Wunderground v.1.15,2013-02-09 08:25:00,
2013-02-09 03:30:00,28.3,24.9,30.20,North,5,16.0,16.0,87,0.00,,,0.00,Wunderground v.1.15,2013-02-09 08:30:00,
2013-02-09 03:35:00,28.2,24.8,30.19,NNW,344,16.0,16.0,87,0.00,,,0.00,Wunderground v.1.15,2013-02-09 08:35:00,
2013-02-09 03:40:00,28.2,25.1,30.20,North,360,16.0,16.0,88,0.00,,,0.00,Wunderground v.1.15,2013-02-09 08:40:00,
2013-02-09 03:50:00,28.1,25.0,30.20,North,360,15.0,15.0,88,0.00,,,0.00,Wunderground v.1.15,2013-02-09 08:50:00,
2013-02-09 03:55:00,28.1,25.0,30.19,North,355,14.0,15.0,88,0.00,,,0.00,Wunderground v.1.15,2013-02-09 08:55:00,
2013-02-09 04:05:00,28.0,24.9,30.20,North,355,14.0,15.0,88,0.00,,,0.00,Wunderground v.1.15,2013-02-09 09:05:00,
2013-02-09 04:15:00,27.9,24.8,30.21,North,5,14.0,14.0,88,0.00,,,0.00,Wunderground v.1.15,2013-02-09 09:15:00,
2013-02-09 04:20:00,27.8,24.7,30.20,North,355,13.0,13.0,88,0.00,,,0.00,Wunderground v.1.15,2013-02-09 09:20:00,
2013-02-09 04:25:00,27.7,24.6,30.21,North,360,13.0,15.0,88,0.00,,,0.00,Wunderground v.1.15,2013-02-09 09:25:00,
2013-02-09 04:30:00,27.7,24.9,30.21,NNW,347,13.0,15.0,89,0.00,,,0.00,Wunderground v.1.15,2013-02-09 09:30:00,
2013-02-09 04:35:00,27.6,24.8,30.21,North,5,12.0,15.0,89,0.00,,,0.00,Wunderground v.1.15,2013-02-09 09:35:00,
2013-02-09 04:40:00,27.6,24.8,30.21,North,349,12.0,12.0,89,0.00,,,0.00,Wunderground v.1.15,2013-02-09 09:40:00,
2013-02-09 04:45:00,27.5,24.7,30.22,North,5,12.0,12.0,89,0.00,,,0.00,Wunderground v.1.15,2013-02-09 09:45:00,
2013-02-09 04:55:00,27.3,24.2,30.22,North,355,11.0,13.0,88,0.00,,,0.00,Wunderground v.1.15,2013-02-09 09:55:00,
2013-02-09 05:00:00,27.3,24.2,30.22,North,349,12.0,13.0,88,0.00,,,0.00,Wunderground v.1.15,2013-02-09 10:00:00,
2013-02-09 05:05:00,27.2,24.1,30.23,North,355,13.0,15.0,88,0.00,,,0.00,Wunderground v.1.15,2013-02-09 10:05:00,
2013-02-09 05:15:00,27.1,24.0,30.23,North,355,13.0,14.0,88,0.00,,,0.00,Wunderground v.1.15,2013-02-09 10:15:00,
2013-02-09 05:20:00,27.0,23.9,30.23,NNW,344,14.0,14.0,88,0.00,,,0.00,Wunderground v.1.15,2013-02-09 10:20:00,
2013-02-09 05:25:00,27.0,24.2,30.23,North,5,13.0,14.0,89,0.00,,,0.00,Wunderground v.1.15,2013-02-09 10:25:00,
2013-02-09 05:30:00,26.9,23.8,30.23,North,5,13.0,13.0,88,0.00,,,0.00,Wunderground v.1.15,2013-02-09 10:30:00,
2013-02-09 05:35:00,26.8,24.0,30.23,North,360,13.0,16.0,89,0.00,,,0.00,Wunderground v.1.15,2013-02-09 10:35:00,
2013-02-09 05:45:00,26.7,23.6,30.24,North,355,14.0,18.0,88,0.00,,,0.00,Wunderground v.1.15,2013-02-09 10:45:00,
2013-02-09 05:55:00,26.6,23.5,30.24,North,5,14.0,14.0,88,0.00,,,0.00,Wunderground v.1.15,2013-02-09 10:55:00,
2013-02-09 06:00:00,26.5,23.4,30.24,North,5,14.0,14.0,88,0.00,,,0.00,Wunderground v.1.15,2013-02-09 11:00:00,
2013-02-09 06:05:00,26.5,23.4,30.24,North,11,14.0,14.0,88,0.00,,,0.00,Wunderground v.1.15,2013-02-09 11:05:00,
2013-02-09 06:15:00,26.3,23.2,30.25,North,355,13.0,16.0,88,0.00,,,0.00,Wunderground v.1.15,2013-02-09 11:15:00,
2013-02-09 06:20:00,26.3,23.2,30.24,NNE,16,13.0,13.0,88,0.00,,,0.00,Wunderground v.1.15,2013-02-09 11:20:00,
2013-02-09 06:25:00,26.2,23.1,30.25,North,5,13.0,20.0,88,0.00,,,0.00,Wunderground v.1.15,2013-02-09 11:25:00,
2013-02-09 06:30:00,26.2,23.1,30.25,North,360,14.0,14.0,88,0.00,,,0.00,Wunderground v.1.15,2013-02-09 11:30:00,
2013-02-09 06:35:00,26.2,23.1,30.25,North,349,13.0,18.0,88,0.00,,,0.00,Wunderground v.1.15,2013-02-09 11:35:00,
2013-02-09 06:40:00,26.2,23.1,30.26,North,5,12.0,12.0,88,0.00,,,0.00,Wunderground v.1.15,2013-02-09 11:40:00,
2013-02-09 06:50:00,26.1,23.0,30.27,NNW,348,10.0,14.0,88,0.00,,,0.00,Wunderground v.1.15,2013-02-09 11:50:00,
2013-02-09 06:55:00,26.0,22.9,30.27,North,5,10.0,14.0,88,0.00,,,0.00,Wunderground v.1.15,2013-02-09 11:55:00,
2013-02-09 07:00:00,26.0,22.9,30.27,North,349,10.0,10.0,88,0.00,,,0.00,Wunderground v.1.15,2013-02-09 12:00:00,
2013-02-09 07:05:00,25.9,22.8,30.27,North,360,10.0,10.0,88,0.00,,,0.00,Wunderground v.1.15,2013-02-09 12:05:00,
2013-02-09 07:15:00,25.8,23.0,30.28,NNW,340,11.0,15.0,89,0.00,,,0.00,Wunderground v.1.15,2013-02-09 12:15:00,
2013-02-09 07:20:00,25.7,22.9,30.28,North,5,11.0,11.0,89,0.00,,,0.00,Wunderground v.1.15,2013-02-09 12:20:00,
2013-02-09 07:30:00,25.6,22.8,30.29,North,360,10.0,10.0,89,0.00,,,0.00,Wunderground v.1.15,2013-02-09 12:30:00,
2013-02-09 07:40:00,25.5,22.7,30.29,North,5,9.0,10.0,89,0.00,,,0.00,Wunderground v.1.15,2013-02-09 12:40:00,
2013-02-09 07:45:00,25.4,22.6,30.29,North,360,9.0,10.0,89,0.00,,,0.00,Wunderground v.1.15,2013-02-09 12:45:00,
2013-02-09 07:50:00,25.4,22.6,30.30,North,360,8.0,8.0,89,0.00,,,0.00,Wunderground v.1.15,2013-02-09 12:50:00,
2013-02-09 07:55:00,25.4,22.6,30.30,North,360,8.0,12.0,89,0.00,,,0.00,Wunderground v.1.15,2013-02-09 12:55:00,
2013-02-09 08:05:00,25.4,22.6,30.31,North,5,9.0,12.0,89,0.00,,,0.00,Wunderground v.1.15,2013-02-09 13:05:00,
2013-02-09 08:15:00,25.3,22.5,30.31,North,5,9.0,12.0,89,0.00,,,0.00,Wunderground v.1.15,2013-02-09 13:15:00,
2013-02-09 08:20:00,25.3,22.5,30.31,North,355,8.0,10.0,89,0.00,,,0.00,Wunderground v.1.15,2013-02-09 13:20:00,
2013-02-09 08:25:00,25.3,22.5,30.31,North,355,8.0,10.0,89,0.00,,,0.00,Wunderground v.1.15,2013-02-09 13:25:00,
2013-02-09 08:30:00,25.3,22.5,30.32,North,5,8.0,8.0,89,0.00,,,0.00,Wunderground v.1.15,2013-02-09 13:30:00,
2013-02-09 08:40:00,25.4,22.6,30.32,NNW,346,7.0,9.0,89,0.00,,,0.00,Wunderground v.1.15,2013-02-09 13:40:00,
2013-02-09 08:45:00,25.5,22.7,30.33,North,360,8.0,9.0,89,0.00,,,0.00,Wunderground v.1.15,2013-02-09 13:45:00,
2013-02-09 08:55:00,25.6,22.8,30.33,North,350,8.0,8.0,89,0.00,,,0.00,Wunderground v.1.15,2013-02-09 13:55:00,
2013-02-09 09:00:00,25.6,22.8,30.33,NNW,348,8.0,10.0,89,0.00,,,0.00,Wunderground v.1.15,2013-02-09 14:00:00,
2013-02-09 09:05:00,25.8,23.0,30.33,North,355,8.0,10.0,89,0.00,,,0.00,Wunderground v.1.15,2013-02-09 14:05:00,